Regional Weather Roundup
Issued by NWS Jackson, KY

Home | Current Version | Previous Version | Graphics & Text | Print | Product List | Glossary On
Versions: 1 2 3 4 5 6 7 8 9 10 11 12 13 14 15 16 17 18 19 20 21 22 23 24 25 26 27 28
000
ASUS43 KJKL 271610
RWRJKL

EAST KENTUCKY HOURLY WEATHER ROUNDUP
NATIONAL WEATHER SERVICE JACKSON KY
1200 PM EDT TUE SEP 27 2016

NOTE: "FAIR" INDICATES FEW OR NO CLOUDS BELOW 12,000 FEET WITH
NO SIGNIFICANT WEATHER AND/OR OBSTRUCTIONS TO VISIBILITY.

* THESE REPORTS ARE NOT UNDER NWS QUALITY CONTROL AND MAY NOT
  REPORT WEATHER SUCH AS PRECIPITATION AND FOG.

KYZ079-080-083-085-087-088-110-112-115-119-120-271700
...EASTERN KENTUCKY...

CITY           SKY/WX    TMP DP  RH WIND       PRES   REMARKS
JACKSON        SUNNY     66  50  56 VRB3      30.04F
LONDON         SUNNY     69  43  38 CALM      30.04F
SOMERSET*      SUNNY     64  50  59 CALM      30.06F
MONTICELLO*    SUNNY     67  46  47 N14       30.06F
WILLIAMSBURG*  SUNNY     66  46  48 N6        30.04F
MIDDLESBORO*   SUNNY     70  46  42 CALM      30.02F
HARLAN APT*    MOSUNNY   70  43  37 S3        30.03F
PIKE CO APT*     N/A     65  44  47 N3        30.04F
MOREHEAD APT*  SUNNY     66  50  55 VRB5      30.04F
ASHLAND*       SUNNY     68  54  60 CALM      29.99F
$$

KYZ035-036-041-042-044-050-067-078-099-271700
...CENTRAL KENTUCKY...

CITY           SKY/WX    TMP DP  RH WIND       PRES   REMARKS
MT STERLING*   SUNNY     68  50  52 SW5       30.04F
FLEMING/MASON* SUNNY     69  45  42 CALM      30.02F
DANVILLE*      SUNNY     68  43  40 SW5       30.05F
LEXINGTON      SUNNY     70  44  39 VRB6      30.02F
FRANKFORT      SUNNY     70  43  37 SW7       30.01F
LOUISVILLE     MOSUNNY   72  47  40 W6        30.01F
LEBANON*         N/A     68  45  42 S3        30.04F
GLASGOW*       SUNNY     66  56  70 W3        30.04F
BOWLING GREEN  SUNNY     69  45  41 CALM      30.05F
$$

KYZ091>093-OHZ055-061-077-WVZ005-015-034-035-042-271700
...SOUTHERN OHIO/WEST VIRGINIA...

CITY           SKY/WX    TMP DP  RH WIND       PRES   REMARKS
COVINGTON      SUNNY     68  48  48 SW8G16    29.98F
COLUMBUS       SUNNY     67  48  50 SW10      29.93F
DAYTON         SUNNY     69  44  40 SW16      29.93F
WILMINGTON     SUNNY     67  45  45 SW16G23   29.95F
HUNTINGTON     SUNNY     69  49  48 VRB6      30.00F
CHARLESTON     MOSUNNY   67  48  50 CALM      30.02F
PINEVILLE*     SUNNY     67  43  40 MISG      30.09S
BECKLEY        SUNNY     63  39  41 NW7       30.05F
BLUEFIELD      MOSUNNY   63  54  72 SW7       30.06S
LOGAN CO APT*    N/A     64  48  55 CALM      30.03F
$$

VAZ002-007-008-TNZ017-027-036-066-071-271700
...SOUTHWEST VIRGINIA/EAST TENNESSEE...

CITY           SKY/WX    TMP DP  RH WIND       PRES   REMARKS
WISE*          MOSUNNY   64  36  34 N3        30.07F
JONESVILLE*      N/A     72  41  33 CALM      30.04F
ABINGDON*      CLOUDY    69  62  79 SW3       30.03F
BRISTOL        PTSUNNY   69  62  78 CALM      30.02F
MORRISTOWN*    CLOUDY    68  61  77 CALM      30.01F
SEVIERVILLE*   CLOUDY    70  61  73 CALM      30.01S
KNOXVILLE      CLOUDY    69  57  65 CALM      30.01F
OAK RIDGE      MOSUNNY   69  45  41 VRB5      30.02F
CROSSVILLE     SUNNY     71  39  31 CALM      30.04F
NASHVILLE      MOSUNNY   71  48  43 N8        30.05F
$$

...KEY TO REMARKS...
VSB - VISIBILITY IN MILES
WCI - WIND CHILL INDEX
HX  - HEAT INDEX

$$




USA.gov is the U.S. government's official web portal to all federal, state and local government web resources and services.